Location: Altmatt
(47.1333°N, 8.7000°E)
Time: 17:08:06
(UTC+00:00)

Cosmos 1680 Rocket - Pass Details

Date: 13 July 2020
Orbit: 760 x 781 km, 74.1° (Epoch: 13 August)

Event Time Altitude Azimuth Distance (km) Brightness Sun altitude
Rises 20:04:32 0° 180° (S) 3,250 6.3 -7.0°
Reaches altitude 10° 20:06:59 10° 174° (S) 2,328 5.6 -7.3°
Maximum altitude 20:11:58 43° 104° (ESE) 1,083 3.9 -7.9°
Drops below altitude 10° 20:16:59 10° 34° (NE) 2,344 6.2 -8.5°
Sets 20:19:28 0° 28° (NNE) 3,275 7.0 -8.8°
